Other Public Products
Issued by NWS Charleston, SC

Home | Current Version | Previous Version | Text Only | Print | Product List | Glossary On
Versions: 1 2 3 4 5 6 7 8 9 10 11 12 13 14 15 16 17 18 19 20 21 22 23 24 25 26 27 28 29 30 31 32 33 34 35 36 37 38 39 40 41 42 43 44 45 46 47 48 49 50
736
FPUS82 KCHS 180512
OPUCHS

TEST...KCHS/KSAV Gateway Observations...TEST
National Weather Service Charleston SC
1200 AM EST SAT NOV 18 2017

NOTE: "fair" indicates few or no clouds below 12,000 feet with no
significant weather and/or obstructions to visibility.

SCZ050-WAZ558-NCZ071-TXZ119-213-PAZ071-DCZ001-FLZ074-172-MI076-
NYZ176-178-MAZ016-IL014-TNZ027-NJZ106-GAZ044-MD014-180600-

...Gateway Observations for Charleston International...

CITY           SKY/WX    TMP DP  RH WIND       PRES   REMARKS
Chas Airport   CLEAR     45  44  97 CALM      30.14F
Seattle        CLOUDY    44  38  79 S10       30.28R
Charlotte      PTCLDY    43  34  70 S5        30.12F
Dallas DFW     CLOUDY    76  64  66 S25       29.69F
Dallas Love    PTCLDY    78  63  59 S12G25    29.71F
Philladelphia  CLOUDY    37  29  72 SW5       30.09F WCI  33
Wash National  MOCLDY    41  33  73 S5        30.11F
Baltimore      CLOUDY    33  30  88 W3        30.09F
Miami          MOCLDY    73  58  59 N5        30.03S
Detroit        RAIN      43  36  76 S10       29.72F
Newark         PTCLDY    37  18  46 W7        30.08S WCI  32
Laguardia      PTCLDY    41  18  39 W12       30.07S
J F K          PTCLDY    39  17  41 NW9       30.08F WCI  33
Boston Logan   NOT AVBL
Ft. Lauderdale PTCLDY    73  58  59 NE7       30.02S
Chicago O`Hare LGT RAIN  47  44  90 SW10      29.57F FOG
Chicago Midway LGT RAIN  48  46  93 SW15G21   29.57F FOG
Houston Bush   PTCLDY    73  69  87 S10       29.89F
Houston Hobby  PTCLDY    71  69  93 S8        29.90F
Nashville      MOCLDY    60  35  39 S18       29.89F
Atlanta        MOCLDY    51  44  77 SE3       30.08F

$$

GAZ044-118-TXZ119-213-NCZ071-DCZ001-MDZ014-506-PAZ021-071-NJZ106-
NYZ176-178-MAZ106-OHZ011-021-055-MIZ076-KYZ091-ILZ014-INZ047-
MNZ060-ONZ431-180600-

...Gateway Observations for Savannah International...

CITY           SKY/WX    TMP DP  RH WIND       PRES   REMARKS
Savannah Arpt  PTCLDY    52  49  89 NE5       30.12F
Atlanta        MOCLDY    51  44  77 SE3       30.08F
Charlotte      PTCLDY    43  34  70 S5        30.12F
Dallas DFW     CLOUDY    76  64  66 S25       29.69F
Houston Bush   PTCLDY    73  69  87 S10       29.89F
Wash National  MOCLDY    41  33  73 S5        30.11F
Wash Dulles    PTCLDY    32  29  88 SE3       30.09F
Baltimore      CLOUDY    33  30  88 W3        30.09F
Philadelphia   CLOUDY    37  29  72 SW5       30.09F WCI  33
Newark         PTCLDY    37  18  46 W7        30.08S WCI  32
Laguardia      PTCLDY    41  18  39 W12       30.07S
J F K          PTCLDY    39  17  41 NW9       30.08F WCI  33
Boston         NOT AVBL
Pittsburg      CLOUDY    32  27  81 SE5       29.88F WCI  27
Akron          CLOUDY    40  28  62 S14       29.81F WCI  32
Cleveland      CLOUDY    45  27  49 S15       29.79F
Cincinnati     CLOUDY    53  37  54 S20G28    29.77F
Columbus       MOCLDY    45  31  58 S13G18    29.79F
Detroit        RAIN      43  36  76 S10       29.72F
Chicago O`Hare LGT RAIN  47  44  90 SW10      29.57F FOG
Minneapolis    CLOUDY    37  36  96 N8        29.65F WCI  31
Indianapolis   LGT RAIN  49  42  77 S10       29.68F
Toronto Canada MOCLDY    37  30  75 SE8       29.84F WCI  31

$$




USA.gov is the U.S. government's official web portal to all federal, state and local government web resources and services.